TimeMST,TemperatureF,Dew PointF,Humidity,Sea Level PressureIn,VisibilityMPH,Wind Direction,Wind SpeedMPH,Gust SpeedMPH,PrecipitationIn,Events,Conditions,WindDirDegrees,DateUTC
5:00 AM,33,24,57,29.68,15,North,6.9,,,,Clear,10,2012-03-10 12:00:00
5:00 AM,33.8,23.0,65,29.68,15.0,North,6.9,-,N/A,,Scattered Clouds,360,2012-03-10 12:00:00
6:00 AM,32.0,24.8,75,29.68,15.0,NW,8.1,-,N/A,,Mostly Cloudy,310,2012-03-10 13:00:00
7:00 AM,32.0,26.6,80,29.67,30.0,WNW,5.8,-,N/A,,Overcast,300,2012-03-10 14:00:00
8:00 AM,33.8,26.6,75,29.68,30.0,WSW,3.5,-,N/A,,Mostly Cloudy,250,2012-03-10 15:00:00
9:00 AM,41.0,28.4,61,29.68,30.0,WNW,4.6,-,N/A,,Mostly Cloudy,300,2012-03-10 16:00:00
10:00 AM,46.4,30.2,53,29.68,30.0,NW,4.6,-,N/A,,Mostly Cloudy,320,2012-03-10 17:00:00
11:00 AM,49,26,28,29.64,28,West,4.6,,,,Scattered Clouds,270,2012-03-10 18:00:00
11:00 AM,48.2,26.6,43,29.64,30.0,West,3.5,-,N/A,,Mostly Cloudy,270,2012-03-10 18:00:00
12:00 PM,51.8,24.8,35,29.62,30.0,Calm,Calm,-,N/A,,Mostly Cloudy,0,2012-03-10 19:00:00
1:00 PM,50.0,28.4,43,29.61,30.0,SE,8.1,-,N/A,,Scattered Clouds,130,2012-03-10 20:00:00
2:00 PM,51.8,28.4,41,29.59,30.0,SE,6.9,-,N/A,,Scattered Clouds,140,2012-03-10 21:00:00
3:00 PM,51.8,30.2,44,29.58,30.0,ESE,9.2,-,N/A,,Scattered Clouds,120,2012-03-10 22:00:00
4:00 PM,48.2,33.8,58,29.57,30.0,East,10.4,-,N/A,,Scattered Clouds,100,2012-03-10 23:00:00
5:00 PM,49,33,43,29.57,28,East,5.8,,,,Scattered Clouds,90,2012-03-11 00:00:00
5:00 PM,48.2,33.8,58,29.57,30.0,East,4.6,-,N/A,,Mostly Cloudy,90,2012-03-11 00:00:00
6:00 PM,44.6,32.0,61,29.58,30.0,East,4.6,-,N/A,,Mostly Cloudy,80,2012-03-11 01:00:00
7:00 PM,41.0,30.2,65,29.57,15.0,East,6.9,-,N/A,,Mostly Cloudy,100,2012-03-11 02:00:00
8:00 PM,37.4,28.4,70,29.61,15.0,SSE,2.3,-,N/A,,Scattered Clouds,160,2012-03-11 03:00:00
9:00 PM,37.4,30.2,75,29.61,15.0,ESE,4.6,-,N/A,,Partly Cloudy,120,2012-03-11 04:00:00